Regional Weather Roundup
Issued by NWS

Home | Current Version | Previous Version | Graphics & Text | Print | Product List | Glossary On
Versions: 1 2 3 4 5 6 7 8 9 10 11 12 13 14 15 16 17 18 19 20 21 22 23 24 25 26 27 28 29 30 31 32 33 34 35 36 37 38 39 40 41 42 43 44 45 46 47 48 49 50
000
ASUS43 KBIS 150202
RWRND

NORTH DAKOTA REGIONAL WEATHER ROUNDUP
NATIONAL WEATHER SERVICE BISMARCK ND
800 PM CST THU DEC 14 2017

NOTE: "FAIR" INDICATES FEW OR NO CLOUDS BELOW 12,000 FEET WITH NO
SIGNIFICANT WEATHER AND/OR OBSTRUCTIONS TO VISIBILITY.


NDZ001>003-009>011-017-150300-
NORTHWEST NORTH DAKOTA

CITY           SKY/WX    TMP DP  RH WIND       PRES   REMARKS
WILLISTON      CLEAR     27  22  81 W6        30.07F
MINOT          CLOUDY    33  23  66 W14       30.02F
MINOT AFB      CLOUDY    32  22  67 NW12      30.01S
$$

NDZ018>021-031>035-040>046-150300-
SOUTHWEST NORTH DAKOTA

CITY           SKY/WX    TMP DP  RH WIND       PRES   REMARKS
BISMARCK       CLOUDY    35  25  66 NW6       30.07F
DICKINSON      CLEAR     24  20  84 W9        30.05F WCI  14
GARRISON         N/A     34  24  67 NW15      30.03F
HETTINGER ARPT CLEAR     18  16  92 W6        30.11S WCI  10
$$

NDZ004>008-012>016-024-026-027-054-150300-
NORTHEAST NORTH DAKOTA

CITY           SKY/WX    TMP DP  RH WIND       PRES   REMARKS
GRAND FORKS    FLURRIES  20  17  88 E3        30.04R
GRND FRKS AFB  FLURRIES  19  17  92 S3        30.02F
DEVILS LAKE    FLURRIES  29  28  96 W13       29.98F WCI  19
$$

NDZ022-023-025-028>030-036>039-047>053-150300-
SOUTHEAST NORTH DAKOTA

CITY           SKY/WX    TMP DP  RH WIND       PRES   REMARKS
FARGO          CLOUDY    23  21  92 CALM      30.02F
JAMESTOWN      CLOUDY    31  29  92 W10       29.99F
$$





USA.gov is the U.S. government's official web portal to all federal, state and local government web resources and services.